Location: Mount Cross
(36.6390°N, 79.4878°W)
Time: 19:25:43
(UTC+00:00)

Courier 1B Rocket - Pass Details

Date: 24 March 2023
Orbit: 920 x 1202 km, 28.2° (Epoch: 08 June)

Event Time Altitude Azimuth Distance (km) Brightness Sun altitude
Rises 06:50:44 0° 262° (W) 3,568 - -47.0°
Reaches altitude 10° 06:54:05 10° 246° (WSW) 2,607 - -46.7°
Maximum altitude 06:58:22 19° 202° (SSW) 2,006 - -46.2°
Drops below altitude 10° 07:02:41 10° 158° (SSE) 2,613 - -45.7°
Sets 07:06:03 0° 141° (SE) 3,579 - -45.3°
